Year,Month,Day,Hour,Minute,Value (Times are PST for temperature in C)
2015,06,27,00,00,20.40
2015,06,27,00,01,20.40
2015,06,27,00,02,20.30
2015,06,27,00,03,20.30
2015,06,27,00,04,20.30
2015,06,27,00,05,20.20
2015,06,27,00,06,20.20
2015,06,27,00,07,20.20
2015,06,27,00,08,20.10
2015,06,27,00,09,20.10
2015,06,27,00,10,20.00
2015,06,27,00,11,20.00
2015,06,27,00,12,19.90
2015,06,27,00,13,19.90
2015,06,27,00,14,19.90
2015,06,27,00,15,19.90
2015,06,27,00,16,19.90
2015,06,27,00,17,19.90
2015,06,27,00,18,19.80
2015,06,27,00,19,19.80
2015,06,27,00,20,19.80
2015,06,27,00,21,19.80
2015,06,27,00,22,19.80
2015,06,27,00,23,19.70
2015,06,27,00,24,19.70
2015,06,27,00,25,19.70
2015,06,27,00,26,19.70
2015,06,27,00,27,19.70
2015,06,27,00,28,19.80
2015,06,27,00,29,19.80
2015,06,27,00,30,19.90
2015,06,27,00,31,19.90
2015,06,27,00,32,20.00
2015,06,27,00,33,20.00
2015,06,27,00,34,20.10
2015,06,27,00,35,20.10
2015,06,27,00,36,20.20
2015,06,27,00,37,20.20
2015,06,27,00,38,20.30
2015,06,27,00,39,20.30
2015,06,27,00,40,20.30
2015,06,27,00,41,20.40
2015,06,27,00,42,20.40
2015,06,27,00,43,20.50
2015,06,27,00,44,20.50
2015,06,27,00,45,20.60
2015,06,27,00,46,20.60
2015,06,27,00,47,20.70
2015,06,27,00,48,20.70
2015,06,27,00,49,20.80
2015,06,27,00,50,20.80
2015,06,27,00,51,20.80
2015,06,27,00,52,20.90
2015,06,27,00,53,20.90
2015,06,27,00,54,20.90
2015,06,27,00,55,20.90
2015,06,27,00,56,21.00
2015,06,27,00,57,21.00
2015,06,27,00,58,21.00
2015,06,27,00,59,21.10
2015,06,27,01,00,21.10
2015,06,27,01,01,21.10
2015,06,27,01,02,21.10
2015,06,27,01,03,21.20
2015,06,27,01,04,21.20
2015,06,27,01,05,21.30
2015,06,27,01,06,21.30
2015,06,27,01,07,21.30
2015,06,27,01,08,21.40
2015,06,27,01,09,21.40
2015,06,27,01,10,21.40
2015,06,27,01,11,21.40
2015,06,27,01,12,21.50
2015,06,27,01,13,21.50
2015,06,27,01,14,21.50
2015,06,27,01,15,21.50
2015,06,27,01,16,21.40
2015,06,27,01,17,21.40
2015,06,27,01,18,21.40
2015,06,27,01,19,21.40
2015,06,27,01,20,21.40
2015,06,27,01,21,21.40
2015,06,27,01,22,21.40
2015,06,27,01,23,21.40
2015,06,27,01,24,21.40
2015,06,27,01,25,21.40
2015,06,27,01,26,21.40
2015,06,27,01,27,21.40
2015,06,27,01,28,21.40
2015,06,27,01,29,21.40
2015,06,27,01,30,21.40
2015,06,27,01,31,21.40
2015,06,27,01,32,21.40
2015,06,27,01,33,21.40
2015,06,27,01,34,21.40
2015,06,27,01,35,21.50
2015,06,27,01,36,21.50
2015,06,27,01,37,21.50
2015,06,27,01,38,21.50
2015,06,27,01,39,21.50
2015,06,27,01,40,21.60
2015,06,27,01,41,21.60
2015,06,27,01,42,21.60
2015,06,27,01,43,21.60
2015,06,27,01,44,21.60
2015,06,27,01,45,21.60
2015,06,27,01,46,21.60
2015,06,27,01,47,21.60
2015,06,27,01,48,21.50
2015,06,27,01,49,21.50
2015,06,27,01,50,21.50
2015,06,27,01,51,21.40
2015,06,27,01,52,21.40
2015,06,27,01,53,21.40
2015,06,27,01,54,21.30
2015,06,27,01,55,21.30
2015,06,27,01,56,21.30
2015,06,27,01,57,21.30
2015,06,27,01,58,21.30
2015,06,27,01,59,21.30
2015,06,27,02,00,21.30
2015,06,27,02,01,21.20
2015,06,27,02,02,21.20
2015,06,27,02,03,21.20
2015,06,27,02,04,21.20
2015,06,27,02,05,21.20
2015,06,27,02,06,21.20
2015,06,27,02,07,21.20
2015,06,27,02,08,21.20
2015,06,27,02,09,21.20
2015,06,27,02,10,21.20
2015,06,27,02,11,21.20
2015,06,27,02,12,21.20
2015,06,27,02,13,21.20
2015,06,27,02,14,21.20
2015,06,27,02,15,21.20
2015,06,27,02,16,21.20
2015,06,27,02,17,21.20
2015,06,27,02,18,21.20
2015,06,27,02,19,21.10
2015,06,27,02,20,21.10
2015,06,27,02,21,21.10
2015,06,27,02,22,21.10
2015,06,27,02,23,21.10
2015,06,27,02,24,21.10
2015,06,27,02,25,21.00
2015,06,27,02,26,21.00
2015,06,27,02,27,21.00
2015,06,27,02,28,20.90
2015,06,27,02,29,20.90
2015,06,27,02,30,20.80
2015,06,27,02,31,20.80
2015,06,27,02,32,20.80
2015,06,27,02,33,20.80
2015,06,27,02,34,20.70
2015,06,27,02,35,20.70
2015,06,27,02,36,20.60
2015,06,27,02,37,20.60
2015,06,27,02,38,20.60
2015,06,27,02,39,20.50
2015,06,27,02,40,20.50
2015,06,27,02,41,20.50
2015,06,27,02,42,20.40
2015,06,27,02,43,20.40
2015,06,27,02,44,20.40
2015,06,27,02,45,20.40
2015,06,27,02,46,20.30
2015,06,27,02,47,20.30
2015,06,27,02,48,20.30
2015,06,27,02,49,20.20
2015,06,27,02,50,20.20
2015,06,27,02,51,20.20
2015,06,27,02,52,20.20
2015,06,27,02,53,20.10
2015,06,27,02,54,20.10
2015,06,27,02,55,20.00
2015,06,27,02,56,20.00
2015,06,27,02,57,20.00
2015,06,27,02,58,19.90
2015,06,27,02,59,19.90
2015,06,27,03,00,19.90
2015,06,27,03,01,19.80
2015,06,27,03,02,19.80
2015,06,27,03,03,19.80
2015,06,27,03,04,19.70
2015,06,27,03,05,19.70
2015,06,27,03,06,19.70
2015,06,27,03,07,19.70
2015,06,27,03,08,19.60
2015,06,27,03,09,19.60
2015,06,27,03,10,19.60
2015,06,27,03,11,19.60
2015,06,27,03,12,19.60
2015,06,27,03,13,19.50
2015,06,27,03,14,19.50
2015,06,27,03,15,19.50
2015,06,27,03,16,19.40
2015,06,27,03,17,19.40
2015,06,27,03,18,19.40
2015,06,27,03,19,19.40
2015,06,27,03,20,19.40
2015,06,27,03,21,19.40
2015,06,27,03,22,19.40
2015,06,27,03,23,19.30
2015,06,27,03,24,19.30
2015,06,27,03,25,19.30
2015,06,27,03,26,19.30
2015,06,27,03,27,19.30
2015,06,27,03,28,19.30
2015,06,27,03,29,19.30
2015,06,27,03,30,19.30
2015,06,27,03,31,19.30
2015,06,27,03,32,19.30
2015,06,27,03,33,19.30
2015,06,27,03,34,19.30
2015,06,27,03,35,19.30
2015,06,27,03,36,19.30
2015,06,27,03,37,19.30
2015,06,27,03,38,19.30
2015,06,27,03,39,19.30
2015,06,27,03,40,19.20
2015,06,27,03,41,19.20
2015,06,27,03,42,19.20
2015,06,27,03,43,19.20
2015,06,27,03,44,19.20
2015,06,27,03,45,19.20
2015,06,27,03,46,19.20
2015,06,27,03,47,19.30
2015,06,27,03,48,19.30
2015,06,27,03,49,19.30
2015,06,27,03,50,19.30
2015,06,27,03,51,19.30
2015,06,27,03,52,19.30
2015,06,27,03,53,19.30
2015,06,27,03,54,19.30
2015,06,27,03,55,19.30
2015,06,27,03,56,19.30
2015,06,27,03,57,19.30
2015,06,27,03,58,19.40
2015,06,27,03,59,19.40
2015,06,27,04,00,19.40
2015,06,27,04,01,19.40
2015,06,27,04,02,19.40
2015,06,27,04,03,19.40
2015,06,27,04,04,19.40
2015,06,27,04,05,19.40
2015,06,27,04,06,19.40
2015,06,27,04,07,19.40
2015,06,27,04,08,19.40
2015,06,27,04,09,19.40
2015,06,27,04,10,19.40
2015,06,27,04,11,19.40
2015,06,27,04,12,19.40
2015,06,27,04,13,19.40
2015,06,27,04,14,19.40
2015,06,27,04,15,19.40
2015,06,27,04,16,19.40
2015,06,27,04,17,19.40
2015,06,27,04,18,19.40
2015,06,27,04,19,19.40
2015,06,27,04,20,19.40
2015,06,27,04,21,19.40
2015,06,27,04,22,19.50
2015,06,27,04,23,19.40
2015,06,27,04,24,19.40
2015,06,27,04,25,19.50
2015,06,27,04,26,19.50
2015,06,27,04,27,19.50
2015,06,27,04,28,19.50
2015,06,27,04,29,19.50
2015,06,27,04,30,19.40
2015,06,27,04,31,19.40
2015,06,27,04,32,19.40
2015,06,27,04,33,19.40
2015,06,27,04,34,19.40
2015,06,27,04,35,19.40
2015,06,27,04,36,19.40
2015,06,27,04,37,19.40
2015,06,27,04,38,19.40
2015,06,27,04,39,19.30
2015,06,27,04,40,19.30
2015,06,27,04,41,19.30
2015,06,27,04,42,19.30
2015,06,27,04,43,19.30
2015,06,27,04,44,19.30
2015,06,27,04,45,19.30
2015,06,27,04,46,19.20
2015,06,27,04,47,19.20
2015,06,27,04,48,19.20
2015,06,27,04,49,19.20
2015,06,27,04,50,19.20
2015,06,27,04,51,19.20
2015,06,27,04,52,19.20
2015,06,27,04,53,19.20
2015,06,27,04,54,19.20
2015,06,27,04,55,19.20
2015,06,27,04,56,19.20
2015,06,27,04,57,19.20
2015,06,27,04,58,19.20
2015,06,27,04,59,19.20
2015,06,27,05,00,19.20
2015,06,27,05,01,19.20
2015,06,27,05,02,19.20
2015,06,27,05,03,19.20
2015,06,27,05,04,19.20
2015,06,27,05,05,19.20
2015,06,27,05,06,19.20
2015,06,27,05,07,19.20
2015,06,27,05,08,19.20
2015,06,27,05,09,19.20
2015,06,27,05,10,19.20
2015,06,27,05,11,19.20
2015,06,27,05,12,19.10
2015,06,27,05,13,19.10
2015,06,27,05,14,19.10
2015,06,27,05,15,19.10
2015,06,27,05,16,19.10
2015,06,27,05,17,19.10
2015,06,27,05,18,19.10
2015,06,27,05,19,19.10
2015,06,27,05,20,19.10
2015,06,27,05,21,19.10
2015,06,27,05,22,19.10
2015,06,27,05,23,19.10
2015,06,27,05,24,19.10
2015,06,27,05,25,19.10
2015,06,27,05,26,19.10
2015,06,27,05,27,19.10
2015,06,27,05,28,19.10
2015,06,27,05,29,19.10
2015,06,27,05,30,19.10
2015,06,27,05,31,19.10
2015,06,27,05,32,19.10
2015,06,27,05,33,19.10
2015,06,27,05,34,19.10
2015,06,27,05,35,19.10
2015,06,27,05,36,19.10
2015,06,27,05,37,19.10
2015,06,27,05,38,19.10
2015,06,27,05,39,19.10
2015,06,27,05,40,19.10
2015,06,27,05,41,19.10
2015,06,27,05,42,19.10
2015,06,27,05,43,19.10
2015,06,27,05,44,19.10
2015,06,27,05,45,19.20
2015,06,27,05,46,19.20
2015,06,27,05,47,19.20
2015,06,27,05,48,19.20
2015,06,27,05,49,19.20
2015,06,27,05,50,19.20
2015,06,27,05,51,19.20
2015,06,27,05,52,19.20
2015,06,27,05,53,19.20
2015,06,27,05,54,19.20
2015,06,27,05,55,19.20
2015,06,27,05,56,19.20
2015,06,27,05,57,19.20
2015,06,27,05,58,19.20
2015,06,27,05,59,19.20
2015,06,27,06,00,19.20
2015,06,27,06,01,19.20
2015,06,27,06,02,19.20
2015,06,27,06,03,19.20
2015,06,27,06,04,19.20
2015,06,27,06,05,19.20
2015,06,27,06,06,19.20
2015,06,27,06,07,19.20
2015,06,27,06,08,19.20
2015,06,27,06,09,19.20
2015,06,27,06,10,19.20
2015,06,27,06,11,19.20
2015,06,27,06,12,19.20
2015,06,27,06,13,19.20
2015,06,27,06,14,19.30
2015,06,27,06,15,19.30
2015,06,27,06,16,19.30
2015,06,27,06,17,19.30
2015,06,27,06,18,19.30
2015,06,27,06,19,19.30
2015,06,27,06,20,19.30
2015,06,27,06,21,19.30
2015,06,27,06,22,19.30
2015,06,27,06,23,19.30
2015,06,27,06,24,19.30
2015,06,27,06,25,19.30
2015,06,27,06,26,19.30
2015,06,27,06,27,19.30
2015,06,27,06,28,19.30
2015,06,27,06,29,19.30
2015,06,27,06,30,19.40
2015,06,27,06,31,19.40
2015,06,27,06,32,19.40
2015,06,27,06,33,19.40
2015,06,27,06,34,19.40
2015,06,27,06,35,19.40
2015,06,27,06,36,19.40
2015,06,27,06,37,19.40
2015,06,27,06,38,19.40
2015,06,27,06,39,19.50
2015,06,27,06,40,19.50
2015,06,27,06,41,19.50
2015,06,27,06,42,19.50
2015,06,27,06,43,19.50
2015,06,27,06,44,19.50
2015,06,27,06,45,19.50
2015,06,27,06,46,19.50
2015,06,27,06,47,19.60
2015,06,27,06,48,19.60
2015,06,27,06,49,19.60
2015,06,27,06,50,19.60
2015,06,27,06,51,19.60
2015,06,27,06,52,19.60
2015,06,27,06,53,19.60
2015,06,27,06,54,19.60
2015,06,27,06,55,19.60
2015,06,27,06,56,19.70
2015,06,27,06,57,19.70
2015,06,27,06,58,19.70
2015,06,27,06,59,19.70
2015,06,27,07,00,19.70
2015,06,27,07,01,19.70
2015,06,27,07,02,19.70
2015,06,27,07,03,19.70
2015,06,27,07,04,19.70
2015,06,27,07,05,19.70
2015,06,27,07,06,19.70
2015,06,27,07,07,19.70
2015,06,27,07,08,19.70
2015,06,27,07,09,19.70
2015,06,27,07,10,19.70
2015,06,27,07,11,19.70
2015,06,27,07,12,19.70
2015,06,27,07,13,19.70
2015,06,27,07,14,19.70
2015,06,27,07,15,19.70
2015,06,27,07,16,19.70
2015,06,27,07,17,19.70
2015,06,27,07,18,19.80
2015,06,27,07,19,19.80
2015,06,27,07,20,19.80
2015,06,27,07,21,19.80
2015,06,27,07,22,19.80
2015,06,27,07,23,19.80
2015,06,27,07,24,19.80
2015,06,27,07,25,19.80
2015,06,27,07,26,19.80
2015,06,27,07,27,19.90
2015,06,27,07,28,19.90
2015,06,27,07,29,19.90
2015,06,27,07,30,19.90
2015,06,27,07,31,20.00
2015,06,27,07,32,20.00
2015,06,27,07,33,20.00
2015,06,27,07,34,20.10
2015,06,27,07,35,20.10
2015,06,27,07,36,20.10
2015,06,27,07,37,20.20
2015,06,27,07,38,20.20
2015,06,27,07,39,20.20
2015,06,27,07,40,20.20
2015,06,27,07,41,20.30
2015,06,27,07,42,20.30
2015,06,27,07,43,20.40
2015,06,27,07,44,20.40
2015,06,27,07,45,20.40
2015,06,27,07,46,20.50
2015,06,27,07,47,20.50
2015,06,27,07,48,20.50
2015,06,27,07,49,20.50
2015,06,27,07,50,20.60
2015,06,27,07,51,20.60
2015,06,27,07,52,20.60
2015,06,27,07,53,20.60
2015,06,27,07,54,20.60
2015,06,27,07,55,20.60
2015,06,27,07,56,20.70
2015,06,27,07,57,20.70
2015,06,27,07,58,20.70
2015,06,27,07,59,20.70
2015,06,27,08,00,20.70
2015,06,27,08,01,20.70
2015,06,27,08,02,20.70
2015,06,27,08,03,20.80
2015,06,27,08,04,20.80
2015,06,27,08,05,20.80
2015,06,27,08,06,20.80
2015,06,27,08,07,20.90
2015,06,27,08,08,20.90
2015,06,27,08,09,20.90
2015,06,27,08,10,21.00
2015,06,27,08,11,21.00
2015,06,27,08,12,21.10
2015,06,27,08,13,21.10
2015,06,27,08,14,21.20
2015,06,27,08,15,21.20
2015,06,27,08,16,21.30
2015,06,27,08,17,21.30
2015,06,27,08,18,21.40
2015,06,27,08,19,21.40
2015,06,27,08,20,21.40
2015,06,27,08,21,21.50
2015,06,27,08,22,21.50
2015,06,27,08,23,21.60
2015,06,27,08,24,21.60
2015,06,27,08,25,21.60
2015,06,27,08,26,21.60
2015,06,27,08,27,21.60
2015,06,27,08,28,21.70
2015,06,27,08,29,21.70
2015,06,27,08,30,21.70
2015,06,27,08,31,21.70
2015,06,27,08,32,21.70
2015,06,27,08,33,21.70
2015,06,27,08,34,21.70
2015,06,27,08,35,21.70
2015,06,27,08,36,21.70
2015,06,27,08,37,21.70
2015,06,27,08,38,21.70
2015,06,27,08,39,21.70
2015,06,27,08,40,21.80
2015,06,27,08,41,21.80
2015,06,27,08,42,21.80
2015,06,27,08,43,21.80
2015,06,27,08,44,21.80
2015,06,27,08,45,21.80
2015,06,27,08,46,21.80
2015,06,27,08,47,21.70
2015,06,27,08,48,21.70
2015,06,27,08,49,21.70
2015,06,27,08,50,21.70
2015,06,27,08,51,21.70
2015,06,27,08,52,21.70
2015,06,27,08,53,21.70
2015,06,27,08,54,21.70
2015,06,27,08,55,21.70
2015,06,27,08,56,21.70
2015,06,27,08,57,21.70
2015,06,27,08,58,21.70
2015,06,27,08,59,21.70
2015,06,27,09,00,21.80
2015,06,27,09,01,21.80
2015,06,27,09,02,21.80
2015,06,27,09,03,21.80
2015,06,27,09,04,21.90
2015,06,27,09,05,21.90
2015,06,27,09,06,22.00
2015,06,27,09,07,22.00
2015,06,27,09,08,22.00
2015,06,27,09,09,22.10
2015,06,27,09,10,22.10
2015,06,27,09,11,22.10
2015,06,27,09,12,22.10
2015,06,27,09,13,22.10
2015,06,27,09,14,22.20
2015,06,27,09,15,22.20
2015,06,27,09,16,22.30
2015,06,27,09,17,22.30
2015,06,27,09,18,22.40
2015,06,27,09,19,22.40
2015,06,27,09,20,22.40
2015,06,27,09,21,22.40
2015,06,27,09,22,22.50
2015,06,27,09,23,22.50
2015,06,27,09,24,22.40
2015,06,27,09,25,22.40
2015,06,27,09,26,22.40
2015,06,27,09,27,22.40
2015,06,27,09,28,22.30
2015,06,27,09,29,22.30
2015,06,27,09,30,22.30
2015,06,27,09,31,22.30
2015,06,27,09,32,22.30
2015,06,27,09,33,22.20
2015,06,27,09,34,22.20
2015,06,27,09,35,22.20
2015,06,27,09,36,22.20
2015,06,27,09,37,22.20
2015,06,27,09,38,22.30
2015,06,27,09,39,22.20
2015,06,27,09,40,22.20
2015,06,27,09,41,22.20
2015,06,27,09,42,22.10
2015,06,27,09,43,22.20
2015,06,27,09,44,22.20
2015,06,27,09,45,22.20
2015,06,27,09,46,22.20
2015,06,27,09,47,22.20
2015,06,27,09,48,22.20
2015,06,27,09,49,22.20
2015,06,27,09,50,22.10
2015,06,27,09,51,22.10
2015,06,27,09,52,22.20
2015,06,27,09,53,22.20
2015,06,27,09,54,22.20
2015,06,27,09,55,22.30
2015,06,27,09,56,22.30
2015,06,27,09,57,22.30
2015,06,27,09,58,22.30
2015,06,27,09,59,22.30
2015,06,27,10,00,22.30
2015,06,27,10,01,22.30
2015,06,27,10,02,22.40
2015,06,27,10,03,22.40
2015,06,27,10,04,22.40
2015,06,27,10,05,22.30
2015,06,27,10,06,22.30
2015,06,27,10,07,22.20
2015,06,27,10,08,22.10
2015,06,27,10,09,21.90
2015,06,27,10,10,21.80
2015,06,27,10,11,21.60
2015,06,27,10,12,21.60
2015,06,27,10,13,21.50
2015,06,27,10,14,21.40
2015,06,27,10,15,21.50
2015,06,27,10,16,21.40
2015,06,27,10,17,21.40
2015,06,27,10,18,21.40
2015,06,27,10,19,21.40
2015,06,27,10,20,21.50
2015,06,27,10,21,21.50
2015,06,27,10,22,21.60
2015,06,27,10,23,21.60
2015,06,27,10,24,21.70
2015,06,27,10,25,21.80
2015,06,27,10,26,21.90
2015,06,27,10,27,22.00
2015,06,27,10,28,22.10
2015,06,27,10,29,22.20
2015,06,27,10,30,22.20
2015,06,27,10,31,22.20
2015,06,27,10,32,22.20
2015,06,27,10,33,22.30
2015,06,27,10,34,22.30
2015,06,27,10,35,22.40
2015,06,27,10,36,22.40
2015,06,27,10,37,22.30
2015,06,27,10,38,22.30
2015,06,27,10,39,22.30
2015,06,27,10,40,22.30
2015,06,27,10,41,22.20
2015,06,27,10,42,22.20
2015,06,27,10,43,22.10
2015,06,27,10,44,22.10
2015,06,27,10,45,22.00
2015,06,27,10,46,22.00
2015,06,27,10,47,21.90
2015,06,27,10,48,21.80
2015,06,27,10,49,21.80
2015,06,27,10,50,21.80
2015,06,27,10,51,21.80
2015,06,27,10,52,21.80
2015,06,27,10,53,21.90
2015,06,27,10,54,21.90
2015,06,27,10,55,22.00
2015,06,27,10,56,22.10
2015,06,27,10,57,22.20
2015,06,27,10,58,22.30
2015,06,27,10,59,22.40
2015,06,27,11,00,22.60
2015,06,27,11,01,22.70
2015,06,27,11,02,22.80
2015,06,27,11,03,23.00
2015,06,27,11,04,23.10
2015,06,27,11,05,23.20
2015,06,27,11,06,23.30
2015,06,27,11,07,23.40
2015,06,27,11,08,23.50
2015,06,27,11,09,23.50
2015,06,27,11,10,23.60
2015,06,27,11,11,23.60
2015,06,27,11,12,23.60
2015,06,27,11,13,23.70
2015,06,27,11,14,23.70
2015,06,27,11,15,23.80
2015,06,27,11,16,23.80
2015,06,27,11,17,23.80
2015,06,27,11,18,23.80
2015,06,27,11,19,23.80
2015,06,27,11,20,23.80
2015,06,27,11,21,23.80
2015,06,27,11,22,23.80
2015,06,27,11,23,23.80
2015,06,27,11,24,23.80
2015,06,27,11,25,23.80
2015,06,27,11,26,23.80
2015,06,27,11,27,23.80
2015,06,27,11,28,23.80
2015,06,27,11,29,23.80
2015,06,27,11,30,23.80
2015,06,27,11,31,23.80
2015,06,27,11,32,23.90
2015,06,27,11,33,24.00
2015,06,27,11,34,24.10
2015,06,27,11,35,24.20
2015,06,27,11,36,24.30
2015,06,27,11,37,24.50
2015,06,27,11,38,24.50
2015,06,27,11,39,24.60
2015,06,27,11,40,24.60
2015,06,27,11,41,24.60
2015,06,27,11,42,24.60
2015,06,27,11,43,24.60
2015,06,27,11,44,24.70
2015,06,27,11,45,24.70
2015,06,27,11,46,24.80
2015,06,27,11,47,24.90
2015,06,27,11,48,25.00
2015,06,27,11,49,25.00
2015,06,27,11,50,25.10
2015,06,27,11,51,25.20
2015,06,27,11,52,25.30
2015,06,27,11,53,25.40
2015,06,27,11,54,25.40
2015,06,27,11,55,25.50
2015,06,27,11,56,25.50
2015,06,27,11,57,25.50
2015,06,27,11,58,25.60
2015,06,27,11,59,25.60
2015,06,27,12,00,25.60
2015,06,27,12,01,25.60
2015,06,27,12,02,25.70
2015,06,27,12,03,25.80
2015,06,27,12,04,25.80
2015,06,27,12,05,25.80
2015,06,27,12,06,25.80
2015,06,27,12,07,25.80
2015,06,27,12,08,25.80
2015,06,27,12,09,25.80
2015,06,27,12,10,25.80
2015,06,27,12,11,25.90
2015,06,27,12,12,25.90
2015,06,27,12,13,25.90
2015,06,27,12,14,26.00
2015,06,27,12,15,26.10
2015,06,27,12,16,26.10
2015,06,27,12,17,26.10
2015,06,27,12,18,26.10
2015,06,27,12,19,26.00
2015,06,27,12,20,26.00
2015,06,27,12,21,26.10
2015,06,27,12,22,26.00
2015,06,27,12,23,26.00
2015,06,27,12,24,25.90
2015,06,27,12,25,25.90
2015,06,27,12,26,26.00
2015,06,27,12,27,26.10
2015,06,27,12,28,26.20
2015,06,27,12,29,26.20
2015,06,27,12,30,26.30
2015,06,27,12,31,26.30
2015,06,27,12,32,26.40
2015,06,27,12,33,26.30
2015,06,27,12,34,26.30
2015,06,27,12,35,26.20
2015,06,27,12,36,26.20
2015,06,27,12,37,26.10
2015,06,27,12,38,26.00
2015,06,27,12,39,25.90
2015,06,27,12,40,25.90
2015,06,27,12,41,25.90
2015,06,27,12,42,25.90
2015,06,27,12,43,25.90
2015,06,27,12,44,25.90
2015,06,27,12,45,25.90
2015,06,27,12,46,25.90
2015,06,27,12,47,25.90
2015,06,27,12,48,25.90
2015,06,27,12,49,25.90
2015,06,27,12,50,25.90
2015,06,27,12,51,25.90
2015,06,27,12,52,25.90
2015,06,27,12,53,25.90
2015,06,27,12,54,25.90
2015,06,27,12,55,25.90
2015,06,27,12,56,26.00
2015,06,27,12,57,26.10
2015,06,27,12,58,26.20
2015,06,27,12,59,26.20
2015,06,27,13,00,26.30
2015,06,27,13,01,26.20
2015,06,27,13,02,26.20
2015,06,27,13,03,26.20
2015,06,27,13,04,26.20
2015,06,27,13,05,26.20
2015,06,27,13,06,26.20
2015,06,27,13,07,26.10
2015,06,27,13,08,26.10
2015,06,27,13,09,26.00
2015,06,27,13,10,26.00
2015,06,27,13,11,26.00
2015,06,27,13,12,26.00
2015,06,27,13,13,26.00
2015,06,27,13,14,26.10
2015,06,27,13,15,26.00
2015,06,27,13,16,26.00
2015,06,27,13,17,26.10
2015,06,27,13,18,26.10
2015,06,27,13,19,26.10
2015,06,27,13,20,26.00
2015,06,27,13,21,26.00
2015,06,27,13,22,26.00
2015,06,27,13,23,26.00
2015,06,27,13,24,26.00
2015,06,27,13,25,26.00
2015,06,27,13,26,26.10
2015,06,27,13,27,26.20
2015,06,27,13,28,26.10
2015,06,27,13,29,26.00
2015,06,27,13,30,25.90
2015,06,27,13,31,25.90
2015,06,27,13,32,25.80
2015,06,27,13,33,25.80
2015,06,27,13,34,25.70
2015,06,27,13,35,25.70
2015,06,27,13,36,25.70
2015,06,27,13,37,25.50
2015,06,27,13,38,25.40
2015,06,27,13,39,25.40
2015,06,27,13,40,25.40
2015,06,27,13,41,25.40
2015,06,27,13,42,25.40
2015,06,27,13,43,25.40
2015,06,27,13,44,25.40
2015,06,27,13,45,25.40
2015,06,27,13,46,25.40
2015,06,27,13,47,25.40
2015,06,27,13,48,25.40
2015,06,27,13,49,25.30
2015,06,27,13,50,25.30
2015,06,27,13,51,25.30
2015,06,27,13,52,25.30
2015,06,27,13,53,25.30
2015,06,27,13,54,25.30
2015,06,27,13,55,25.30
2015,06,27,13,56,25.40
2015,06,27,13,57,25.40
2015,06,27,13,58,25.50
2015,06,27,13,59,25.60
2015,06,27,14,00,25.70
2015,06,27,14,01,25.80
2015,06,27,14,02,25.90
2015,06,27,14,03,26.00
2015,06,27,14,04,26.00
2015,06,27,14,05,26.10
2015,06,27,14,06,26.10
2015,06,27,14,07,26.10
2015,06,27,14,08,26.00
2015,06,27,14,09,25.90
2015,06,27,14,10,25.90
2015,06,27,14,11,25.90
2015,06,27,14,12,25.90
2015,06,27,14,13,25.90
2015,06,27,14,14,25.90
2015,06,27,14,15,25.90
2015,06,27,14,16,25.90
2015,06,27,14,17,25.90
2015,06,27,14,18,25.90
2015,06,27,14,19,25.90
2015,06,27,14,20,26.00
2015,06,27,14,21,26.10
2015,06,27,14,22,26.20
2015,06,27,14,23,26.20
2015,06,27,14,24,26.30
2015,06,27,14,25,26.30
2015,06,27,14,26,26.20
2015,06,27,14,27,26.20
2015,06,27,14,28,26.20
2015,06,27,14,29,26.20
2015,06,27,14,30,26.20
2015,06,27,14,31,26.20
2015,06,27,14,32,26.20
2015,06,27,14,33,26.00
2015,06,27,14,34,25.90
2015,06,27,14,35,25.90
2015,06,27,14,36,25.90
2015,06,27,14,37,25.90
2015,06,27,14,38,25.90
2015,06,27,14,39,25.90
2015,06,27,14,40,25.90
2015,06,27,14,41,25.90
2015,06,27,14,42,25.90
2015,06,27,14,43,26.00
2015,06,27,14,44,26.10
2015,06,27,14,45,26.20
2015,06,27,14,46,26.20
2015,06,27,14,47,26.20
2015,06,27,14,48,26.30
2015,06,27,14,49,26.30
2015,06,27,14,50,26.30
2015,06,27,14,51,26.40
2015,06,27,14,52,26.50
2015,06,27,14,53,26.50
2015,06,27,14,54,26.60
2015,06,27,14,55,26.70
2015,06,27,14,56,26.80
2015,06,27,14,57,26.80
2015,06,27,14,58,26.90
2015,06,27,14,59,27.00
2015,06,27,15,00,27.00
2015,06,27,15,01,27.00
2015,06,27,15,02,27.00
2015,06,27,15,03,27.10
2015,06,27,15,04,27.10
2015,06,27,15,05,27.10
2015,06,27,15,06,27.10
2015,06,27,15,07,27.10
2015,06,27,15,08,27.10
2015,06,27,15,09,27.20
2015,06,27,15,10,27.10
2015,06,27,15,11,27.00
2015,06,27,15,12,27.00
2015,06,27,15,13,27.00
2015,06,27,15,14,27.00
2015,06,27,15,15,27.10
2015,06,27,15,16,27.10
2015,06,27,15,17,27.20
2015,06,27,15,18,27.20
2015,06,27,15,19,27.20
2015,06,27,15,20,27.30
2015,06,27,15,21,27.30
2015,06,27,15,22,27.30
2015,06,27,15,23,27.30
2015,06,27,15,24,27.30
2015,06,27,15,25,27.30
2015,06,27,15,26,27.30
2015,06,27,15,27,27.40
2015,06,27,15,28,27.50
2015,06,27,15,29,27.60
2015,06,27,15,30,27.70
2015,06,27,15,31,27.70
2015,06,27,15,32,27.70
2015,06,27,15,33,27.80
2015,06,27,15,34,27.80
2015,06,27,15,35,27.80
2015,06,27,15,36,27.80
2015,06,27,15,37,27.80
2015,06,27,15,38,27.90
2015,06,27,15,39,27.90
2015,06,27,15,40,28.00
2015,06,27,15,41,28.10
2015,06,27,15,42,28.10
2015,06,27,15,43,28.20
2015,06,27,15,44,28.30
2015,06,27,15,45,28.30
2015,06,27,15,46,28.30
2015,06,27,15,47,28.40
2015,06,27,15,48,28.40
2015,06,27,15,49,28.40
2015,06,27,15,50,28.50
2015,06,27,15,51,28.50
2015,06,27,15,52,28.50
2015,06,27,15,53,28.40
2015,06,27,15,54,28.40
2015,06,27,15,55,28.50
2015,06,27,15,56,28.50
2015,06,27,15,57,28.60
2015,06,27,15,58,28.60
2015,06,27,15,59,28.60
2015,06,27,16,00,28.60
2015,06,27,16,01,28.60
2015,06,27,16,02,28.60
2015,06,27,16,03,28.70
2015,06,27,16,04,28.70
2015,06,27,16,05,28.70
2015,06,27,16,06,28.80
2015,06,27,16,07,28.80
2015,06,27,16,08,28.80
2015,06,27,16,09,28.80
2015,06,27,16,10,28.90
2015,06,27,16,11,28.80
2015,06,27,16,12,28.80
2015,06,27,16,13,28.80
2015,06,27,16,14,28.70
2015,06,27,16,15,28.70
2015,06,27,16,16,28.70
2015,06,27,16,17,28.70
2015,06,27,16,18,28.70
2015,06,27,16,19,28.70
2015,06,27,16,20,28.70
2015,06,27,16,21,28.80
2015,06,27,16,22,28.80
2015,06,27,16,23,29.00
2015,06,27,16,24,29.00
2015,06,27,16,25,29.10
2015,06,27,16,26,29.20
2015,06,27,16,27,29.40
2015,06,27,16,28,29.50
2015,06,27,16,29,29.60
2015,06,27,16,30,29.70
2015,06,27,16,31,29.80
2015,06,27,16,32,29.90
2015,06,27,16,33,29.80
2015,06,27,16,34,29.80
2015,06,27,16,35,29.90
2015,06,27,16,36,29.90
2015,06,27,16,37,29.90
2015,06,27,16,38,29.90
2015,06,27,16,39,29.90
2015,06,27,16,40,29.90
2015,06,27,16,41,29.80
2015,06,27,16,42,29.80
2015,06,27,16,43,29.80
2015,06,27,16,44,29.80
2015,06,27,16,45,29.80
2015,06,27,16,46,29.90
2015,06,27,16,47,29.90
2015,06,27,16,48,29.90
2015,06,27,16,49,29.90
2015,06,27,16,50,29.90
2015,06,27,16,51,29.90
2015,06,27,16,52,29.90
2015,06,27,16,53,29.90
2015,06,27,16,54,30.00
2015,06,27,16,55,30.10
2015,06,27,16,56,30.30
2015,06,27,16,57,30.30
2015,06,27,16,58,30.40
2015,06,27,16,59,30.50
2015,06,27,17,00,30.50
2015,06,27,17,01,30.60
2015,06,27,17,02,30.60
2015,06,27,17,03,30.60
2015,06,27,17,04,30.60
2015,06,27,17,05,30.60
2015,06,27,17,06,30.60
2015,06,27,17,07,30.70
2015,06,27,17,08,30.70
2015,06,27,17,09,30.80
2015,06,27,17,10,30.90
2015,06,27,17,11,30.90
2015,06,27,17,12,31.00
2015,06,27,17,13,31.00
2015,06,27,17,14,31.00
2015,06,27,17,15,31.00
2015,06,27,17,16,31.00
2015,06,27,17,17,30.90
2015,06,27,17,18,30.90
2015,06,27,17,19,31.00